Wind_Speed
4 4 4 4 3 3 3 3 2 2 2 1 1 0 1 1 2 3 3 3 3 4 4 4 4 4 4 4 4 4 5 5 5 6 6 6 5 6 6 7 7 7 8 7 7 7 7 7 7
4 4 4 3 3 3 3 2 2 1 1 1 2 2 1 1 2 2 2 2 2 4 4 4 4 5 5 5 5 5 5 5 6 6 7 7 7 7 7 7 7 8 8 8 7 8 8 8 7
4 4 4 3 3 3 2 2 1 1 1 1 2 3 2 2 2 3 3 3 3 4 4 5 5 5 5 6 6 6 6 7 7 7 7 7 7 7 7 7 7 8 8 8 8 8 8 9 9
5 5 4 4 4 2 1 1 1 2 2 2 3 3 3 2 2 3 4 4 4 4 5 5 5 5 6 6 7 7 7 8 8 8 8 7 7 7 7 8 8 8 8 8 8 8 9 9 9
5 6 5 5 5 4 2 2 2 3 3 3 3 3 3 4 4 4 5 5 5 4 5 5 5 6 6 7 7 7 8 9 8 8 8 8 8 8 8 8 8 8 9 9 9 9 9 9 9
5 5 6 5 6 4 4 4 3 3 3 3 3 4 4 4 4 5 5 5 5 5 5 5 5 6 6 7 8 8 9 9 8 8 9 9 9 9 8 8 8 8 9 10 10 10 10 10 10
6 6 6 5 6 5 5 4 4 4 4 3 4 5 6 5 5 5 6 6 6 5 6 6 6 7 7 7 7 8 9 9 9 9 9 9 9 9 9 8 9 9 9 10 10 10 9 9 9
7 6 6 6 6 5 4 4 4 4 4 4 5 5 6 6 6 6 6 6 6 6 6 7 7 7 7 7 7 8 8 9 9 9 9 9 10 10 9 9 9 9 9 10 10 10 10 10 10
7 7 6 6 5 5 5 4 4 5 5 5 5 5 6 6 6 6 6 6 7 6 6 7 7 7 7 7 7 8 8 8 9 9 9 9 9 9 9 9 9 9 9 9 10 10 10 11 11
7 7 6 6 5 5 4 4 5 5 5 5 5 6 6 7 6 6 7 7 7 7 7 7 7 7 7 7 8 8 8 8 9 9 9 9 9 9 10 10 10 10 10 10 10 10 10 11 11
8 7 7 6 6 5 4 4 5 5 5 5 6 7 7 7 7 7 7 7 7 7 7 8 8 8 8 8 8 8 8 8 9 9 9 9 9 10 10 10 10 11 11 11 11 11 11 11 11
8 7 7 7 6 5 4 4 5 5 5 6 6 6 6 7 8 8 8 8 8 8 8 8 9 9 9 9 9 8 8 9 9 9 9 10 10 10 10 10 10 11 11 11 11 11 11 11 11
8 7 7 7 6 5 5 5 5 5 5 5 6 6 6 7 6 7 8 8 8 8 9 9 8 8 9 9 9 9 9 9 9 10 10 10 10 10 11 11 11 11 11 11 10 11 11 11 11
9 8 8 8 7 7 6 6 6 5 5 5 5 6 6 6 7 7 8 9 9 8 8 8 8 9 9 9 9 9 9 9 9 9 10 10 10 10 11 11 11 11 11 10 10 11 11 11 11
9 10 9 9 8 7 7 7 7 6 6 5 5 6 6 7 7 8 8 8 8 8 9 9 9 10 10 11 10 10 10 10 10 10 10 10 10 10 10 11 11 11 11 10 11 11 11 11 12
10 10 10 9 9 8 8 7 8 7 7 7 7 7 7 7 8 8 8 9 8 8 8 9 10 10 11 11 11 11 11 11 10 10 10 10 11 11 11 11 11 11 11 11 10 10 11 11 11
10 10 10 10 9 9 8 8 8 8 7 7 7 7 7 7 7 7 8 8 8 7 8 9 10 10 11 11 11 11 11 11 11 11 11 11 11 12 12 12 12 12 12 11 11 11 11 11 12
11 11 11 10 10 10 9 8 8 8 7 7 8 8 8 8 7 7 8 8 8 8 9 9 10 10 11 12 11 11 12 11 11 11 11 12 11 12 12 12 12 12 12 12 12 12 12 12 13
11 11 11 10 10 10 10 9 9 9 8 8 8 9 9 9 8 8 8 8 8 9 9 10 10 10 11 12 12 12 12 12 12 12 12 12 12 13 13 12 12 12 12 13 13 13 13 14 14
12 11 11 10 10 11 11 10 10 10 9 9 9 9 9 9 9 9 9 9 9 9 9 10 10 11 11 12 13 13 13 13 13 13 14 14 13 13 13 13 14 14 14 14 14 14 14 15 15
13 12 12 12 12 12 12 12 11 11 10 10 9 9 10 10 10 10 10 10 10 10 10 10 11 11 12 12 13 13 13 13 13 14 14 13 13 14 14 14 14 14 15 15 15 15 16 16 16
13 13 13 13 13 14 14 14 12 11 11 11 10 10 10 11 11 11 11 10 11 11 11 11 12 12 12 12 13 13 14 14 14 14 14 14 14 14 14 14 15 15 15 16 16 17 17 17 18
14 13 14 14 15 15 15 15 12 11 12 11 11 10 10 11 12 12 11 11 11 11 12 12 13 13 13 13 13 13 14 14 15 15 15 15 15 15 15 16 16 17 17 17 18 18 19 19 19
14 14 14 15 16 16 14 15 13 12 12 12 12 11 11 11 11 11 11 11 11 11 12 12 13 13 14 14 14 14 14 15 15 15 15 16 16 16 16 17 18 18 18 18 18 18 19 19 18
15 15 15 16 16 16 15 16 14 13 12 12 12 12 12 11 11 11 12 11 12 12 12 13 13 14 14 14 15 15 15 16 16 16 16 17 17 17 17 17 18 18 18 19 19 18 19 18 18
16 16 17 17 17 16 16 16 15 13 12 12 12 12 12 12 12 12 12 13 13 13 13 13 14 14 14 15 15 16 16 17 17 18 18 18 18 18 18 18 19 19 19 19 19 19 19 19 19
17 17 17 18 18 18 17 16 15 14 13 12 12 13 12 12 13 14 14 13 14 14 14 14 15 15 16 16 16 17 17 17 18 18 19 19 19 19 19 19 20 19 19 19 19 19 20 20 20
17 17 17 18 19 18 18 17 16 15 14 14 13 14 14 13 14 15 15 15 15 15 15 15 16 16 17 17 18 18 19 19 19 20 20 20 20 21 20 20 20 20 19 19 20 20 20 21 21
17 18 19 20 20 19 18 17 16 16 16 16 15 15 15 15 16 16 16 16 16 16 16 16 17 17 18 18 18 19 19 19 20 21 21 21 21 22 22 21 22 21 21 21 22 22 22 22 22
18 18 19 21 21 20 20 18 18 17 17 17 17 16 16 16 17 17 17 17 17 17 17 18 18 18 19 20 20 20 20 20 21 21 21 22 22 22 23 22 23 23 23 23 23 23 23 24 23
Wind_Direction
180 180 180 188 193 183 174 166 152 138 148 174 203 239 275 268 256 249 245 248 257 263 261 278 277 273 275 268 270 272 271 272 272 273 275 277 275 273 271 267 268 272 274 270 262 256 254 252 253
190 191 188 191 200 196 183 169 155 153 181 204 237 258 280 276 260 260 263 269 270 275 277 283 285 282 280 273 272 271 269 270 271 273 275 277 276 277 272 271 270 271 272 269 260 255 254 255 256
199 200 200 207 223 218 195 186 194 230 239 252 252 259 267 270 264 269 271 277 277 274 278 282 286 281 275 270 270 271 273 274 274 275 276 277 279 281 275 274 273 269 269 265 259 256 258 260 259
214 213 208 220 232 232 221 228 248 253 254 257 252 262 271 270 272 276 275 277 280 279 274 274 281 278 272 269 268 270 272 275 276 275 273 275 281 283 276 277 275 268 267 265 264 263 263 263 261
229 227 223 225 237 242 251 248 245 250 268 267 261 263 267 268 279 281 280 276 276 277 275 275 281 276 269 269 267 271 272 277 279 271 269 272 278 280 280 279 280 270 265 265 265 265 263 262 263
235 239 237 233 241 247 255 253 251 255 273 276 266 270 269 271 278 282 284 278 275 276 277 279 282 285 279 276 272 273 273 277 278 278 274 276 282 280 277 276 276 271 265 266 267 265 264 263 263
236 241 236 237 246 248 251 247 251 258 269 272 267 272 276 276 284 286 286 282 281 281 282 280 280 281 282 283 279 277 278 277 278 279 278 280 283 283 279 277 274 273 268 265 265 265 264 264 264
237 239 239 241 246 247 249 251 253 264 270 280 282 282 279 278 283 284 283 282 284 285 285 283 283 279 280 281 282 281 279 278 278 279 280 281 282 281 279 278 277 277 273 269 268 264 262 264 264
237 241 241 241 248 250 253 255 258 266 275 284 286 288 282 281 283 283 284 284 283 285 285 282 284 280 279 282 283 284 284 281 278 280 280 281 282 278 277 278 277 279 279 278 274 266 263 266 266
236 240 242 244 247 243 250 256 261 269 274 279 284 288 289 288 288 285 283 285 281 282 285 281 280 281 283 286 286 285 283 283 281 282 282 280 279 278 277 280 280 280 279 278 276 276 274 272 271
234 236 239 242 246 250 258 263 267 271 270 275 282 287 291 291 287 285 284 283 284 280 280 280 280 281 283 283 285 282 279 282 282 281 281 280 280 280 280 281 281 281 279 277 275 276 276 275 274
236 235 238 239 242 245 256 265 267 272 277 279 283 286 286 285 283 281 284 284 284 280 278 276 275 276 278 279 281 279 279 281 282 280 279 280 284 282 280 281 281 281 281 280 279 274 272 273 273
237 235 236 237 236 245 251 262 268 276 281 286 285 286 287 287 287 287 287 285 284 283 279 273 270 275 276 276 278 279 282 281 281 280 282 285 286 283 280 282 281 280 279 277 276 275 275 273 271
237 237 238 241 239 245 250 261 271 276 282 284 286 286 287 288 288 288 286 284 285 283 278 274 269 271 272 277 282 280 278 281 279 279 280 282 283 282 283 281 280 278 274 273 275 276 276 274 273
234 236 240 244 244 246 250 258 266 272 279 287 291 289 290 288 287 289 286 287 288 285 280 276 272 272 274 280 283 282 280 281 280 278 279 281 282 283 283 281 280 276 272 272 273 276 276 275 275
234 237 238 240 244 246 248 254 263 270 277 283 288 290 290 285 285 286 287 287 289 287 283 282 276 273 276 280 283 283 282 280 281 281 280 281 281 281 282 281 279 276 273 272 274 277 278 277 277
237 236 237 241 246 249 252 255 262 270 274 280 285 287 289 291 289 285 285 287 285 283 283 283 280 275 275 279 280 280 279 278 278 279 280 281 283 283 283 282 278 278 276 275 275 276 276 277 279
237 237 237 242 245 249 253 254 260 269 275 281 284 285 285 288 289 289 286 286 286 285 285 287 284 280 276 277 279 281 281 278 278 278 279 280 283 284 283 283 280 276 275 276 277 276 276 278 282
244 244 244 247 250 252 254 256 260 266 272 276 280 282 285 285 286 287 287 284 284 285 286 287 286 284 281 280 281 281 281 280 277 276 277 278 280 281 282 282 280 277 277 278 279 278 279 280 282
246 247 250 253 254 255 257 261 263 265 268 270 273 278 280 280 279 280 281 282 283 285 287 284 284 285 284 282 280 281 281 280 279 277 278 279 282 282 280 281 281 278 279 280 279 279 280 281 282
250 251 253 254 253 256 258 261 264 268 270 269 269 272 273 273 278 279 279 280 283 287 290 289 287 287 286 283 282 282 281 280 280 280 282 281 283 283 282 281 281 281 280 280 281 281 281 281 281
251 252 254 257 256 258 261 264 266 269 269 271 268 265 268 273 276 279 280 281 283 286 288 290 289 287 287 285 282 280 281 281 281 280 281 282 283 284 283 282 282 282 282 281 280 281 281 280 281
250 251 253 256 257 259 261 265 266 265 267 268 268 268 271 274 276 278 280 281 283 285 288 288 288 288 288 287 284 281 281 281 282 281 281 282 283 284 284 282 282 284 284 282 280 280 281 280 280
252 252 250 253 257 258 259 261 264 263 266 269 267 269 272 275 276 277 277 278 281 283 286 288 286 286 286 286 285 282 280 280 282 282 281 280 281 282 283 281 283 284 284 282 281 282 282 283 282
250 250 249 251 255 257 258 262 266 266 265 267 269 271 274 275 274 273 273 275 278 282 285 288 287 286 286 286 286 285 282 281 281 281 281 280 280 282 282 282 282 283 283 282 281 283 283 283 284
249 249 251 254 255 256 257 262 267 265 263 267 271 274 273 272 272 272 273 274 277 279 281 283 285 286 286 287 288 287 284 282 281 281 281 282 282 282 282 280 281 281 281 281 281 281 284 284 284
249 247 251 254 257 259 259 262 264 264 263 263 266 271 274 273 272 271 270 273 275 277 280 282 284 285 286 287 289 287 284 282 281 281 281 282 283 284 284 281 280 280 281 280 281 281 283 282 283
250 253 251 253 256 260 263 263 264 263 262 262 263 266 269 272 271 271 272 274 276 278 280 282 284 285 287 288 287 286 284 283 282 280 279 279 281 283 284 283 282 282 281 280 282 282 281 282 281
246 250 253 255 257 260 263 262 262 262 261 260 259 263 267 269 271 273 275 275 276 277 280 284 286 287 288 289 288 287 287 286 283 280 279 279 279 281 282 281 281 282 282 281 281 281 281 279 280
249 250 252 254 256 260 263 265 264 264 261 260 260 263 268 272 273 274 276 276 276 277 279 283 285 286 288 287 287 286 287 288 286 283 281 280 281 280 280 280 281 281 280 280 280 280 279 278 277
Height
5873 5874 5874 5876 5876 5876 5876 5876 5876 5877 5877 5877 5877 5878 5878 5879 5880 5881 5879 5878 5878 5878 5878 5878 5878 5878 5878 5878 5878 5879 5879 5878 5878 5878 5878 5878 5877 5877 5877 5877 5876 5876 5875 5875 5875 5875 5875 5875 5875
5873 5873 5875 5875 5875 5874 5876 5876 5876 5876 5877 5877 5877 5877 5877 5878 5878 5878 5877 5877 5877 5877 5877 5877 5877 5877 5877 5877 5878 5878 5878 5878 5878 5877 5877 5877 5877 5876 5876 5875 5875 5874 5874 5874 5874 5874 5874 5874 5874
5873 5873 5875 5875 5874 5874 5875 5875 5875 5876 5876 5876 5876 5876 5877 5877 5877 5877 5877 5877 5877 5877 5877 5876 5877 5877 5877 5877 5877 5877 5877 5877 5877 5876 5876 5876 5875 5875 5874 5874 5873 5873 5873 5873 5872 5872 5872 5872 5872
5872 5874 5874 5875 5874 5874 5874 5874 5874 5875 5875 5876 5876 5876 5876 5876 5876 5876 5876 5876 5875 5875 5876 5876 5876 5876 5876 5876 5876 5876 5876 5876 5875 5875 5875 5874 5874 5873 5873 5872 5872 5871 5871 5871 5871 5871 5871 5871 5870
5872 5873 5873 5873 5873 5873 5873 5874 5874 5874 5875 5875 5875 5875 5875 5875 5875 5875 5875 5874 5874 5874 5875 5875 5874 5874 5874 5874 5874 5874 5874 5874 5874 5873 5873 5873 5872 5872 5871 5871 5870 5870 5870 5870 5870 5869 5869 5869 5869
5871 5872 5873 5873 5873 5873 5873 5873 5874 5874 5874 5874 5874 5874 5874 5874 5874 5873 5873 5873 5873 5873 5873 5873 5873 5873 5873 5873 5873 5873 5873 5872 5872 5871 5871 5871 5870 5870 5870 5869 5869 5868 5868 5868 5868 5867 5867 5867 5867
5871 5871 5871 5872 5872 5872 5873 5872 5873 5873 5873 5873 5873 5873 5872 5873 5873 5872 5872 5872 5872 5872 5872 5872 5872 5872 5872 5871 5871 5871 5871 5870 5870 5870 5869 5869 5868 5868 5868 5868 5867 5867 5866 5866 5866 5866 5865 5865 5865
5869 5871 5870 5870 5871 5871 5872 5872 5872 5872 5872 5872 5872 5872 5871 5872 5872 5871 5871 5871 5871 5871 5871 5870 5871 5870 5870 5870 5870 5869 5869 5869 5868 5868 5867 5867 5867 5866 5866 5866 5865 5865 5864 5864 5864 5863 5863 5863 5863
5868 5870 5869 5870 5870 5870 5870 5870 5871 5871 5871 5871 5871 5871 5870 5870 5870 5870 5870 5869 5869 5869 5869 5869 5869 5869 5869 5868 5868 5868 5867 5867 5866 5866 5865 5865 5865 5864 5864 5864 5863 5863 5862 5862 5862 5861 5861 5861 5861
5867 5868 5868 5868 5869 5869 5869 5869 5869 5870 5870 5869 5869 5869 5869 5868 5868 5868 5868 5868 5868 5868 5868 5867 5867 5867 5867 5867 5866 5866 5866 5865 5865 5864 5864 5863 5863 5862 5862 5861 5861 5861 5860 5860 5859 5859 5858 5858 5858
5865 5866 5866 5867 5867 5867 5867 5868 5868 5868 5868 5868 5868 5868 5867 5867 5867 5867 5867 5866 5866 5866 5866 5866 5866 5865 5865 5865 5865 5864 5864 5863 5863 5862 5862 5862 5861 5860 5860 5859 5859 5858 5858 5857 5857 5857 5856 5856 5855
5864 5865 5865 5865 5865 5866 5866 5866 5866 5866 5867 5867 5866 5866 5866 5865 5865 5865 5865 5865 5865 5865 5864 5864 5864 5863 5863 5863 5863 5862 5862 5861 5861 5860 5860 5859 5859 5858 5857 5857 5856 5856 5855 5855 5854 5854 5853 5853 5853
5863 5863 5863 5864 5864 5864 5864 5865 5865 5865 5865 5864 5864 5864 5864 5864 5864 5863 5863 5863 5863 5863 5862 5862 5862 5862 5861 5861 5861 5860 5860 5859 5859 5858 5858 5857 5857 5856 5855 5855 5854 5853 5853 5852 5852 5851 5851 5851 5850
5861 5861 5861 5862 5862 5862 5863 5863 5864 5863 5863 5863 5863 5863 5862 5862 5862 5862 5861 5861 5860 5860 5860 5860 5860 5860 5859 5859 5859 5858 5858 5857 5857 5856 5856 5855 5855 5854 5853 5852 5851 5851 5850 5850 5849 5848 5848 5848 5847
5859 5859 5860 5860 5860 5861 5862 5862 5862 5862 5862 5861 5861 5861 5860 5860 5860 5860 5859 5859 5859 5858 5858 5858 5858 5857 5857 5857 5856 5856 5855 5855 5854 5854 5853 5853 5852 5851 5850 5850 5849 5848 5847 5847 5847 5846 5845 5845 5844
5856 5857 5858 5858 5858 5859 5861 5861 5860 5860 5860 5860 5859 5859 5859 5858 5858 5858 5857 5857 5856 5856 5856 5856 5855 5855 5855 5854 5854 5853 5853 5852 5852 5851 5850 5850 5849 5848 5847 5847 5846 5845 5845 5844 5844 5843 5843 5842 5842
5854 5855 5855 5856 5856 5857 5858 5858 5858 5858 5858 5858 5857 5857 5857 5856 5856 5856 5855 5855 5854 5854 5853 5853 5852 5852 5852 5852 5851 5851 5850 5849 5849 5848 5847 5847 5846 5845 5845 5844 5843 5843 5842 5841 5841 5840 5840 5839 5839
5852 5852 5853 5854 5854 5854 5855 5856 5856 5856 5856 5856 5855 5855 5854 5854 5854 5853 5853 5852 5852 5851 5851 5851 5850 5849 5849 5849 5848 5848 5847 5846 5846 5845 5844 5844 5843 5842 5841 5841 5840 5839 5839 5839 5838 5837 5837 5836 5836
5849 5850 5850 5851 5851 5852 5852 5853 5853 5853 5853 5853 5853 5852 5852 5852 5851 5851 5850 5850 5850 5849 5849 5848 5847 5847 5847 5846 5845 5845 5844 5844 5843 5842 5841 5841 5840 5839 5838 5837 5837 5836 5836 5835 5835 5834 5833 5833 5832
5846 5846 5847 5848 5848 5849 5849 5850 5850 5850 5850 5850 5850 5850 5849 5849 5849 5848 5848 5848 5847 5847 5846 5846 5845 5844 5844 5843 5842 5842 5841 5840 5840 5839 5838 5837 5836 5835 5835 5834 5833 5833 5832 5832 5831 5830 5830 5829 5828
5843 5844 5845 5845 5845 5845 5846 5847 5847 5847 5847 5847 5847 5847 5847 5846 5846 5846 5845 5845 5844 5844 5843 5843 5842 5841 5840 5840 5839 5839 5838 5837 5837 5835 5835 5834 5833 5832 5831 5830 5830 5829 5828 5828 5827 5826 5825 5825 5824
5840 5841 5841 5841 5842 5842 5843 5843 5844 5844 5843 5844 5844 5844 5844 5843 5843 5843 5842 5842 5841 5841 5840 5840 5839 5838 5837 5836 5836 5835 5834 5833 5833 5832 5831 5830 5829 5828 5827 5827 5826 5825 5824 5823 5822 5821 5821 5820 5819
5836 5837 5837 5837 5837 5838 5839 5839 5841 5840 5840 5840 5840 5840 5840 5840 5840 5839 5839 5839 5838 5838 5837 5836 5836 5835 5834 5833 5832 5832 5831 5830 5829 5828 5827 5827 5826 5824 5823 5822 5822 5821 5820 5818 5817 5816 5815 5814 5813
5833 5833 5833 5833 5834 5834 5835 5835 5836 5836 5836 5836 5836 5836 5836 5836 5836 5836 5835 5835 5835 5834 5834 5833 5832 5831 5830 5829 5829 5828 5827 5826 5825 5824 5823 5822 5821 5820 5819 5818 5817 5816 5815 5813 5812 5811 5810 5809 5807
5829 5830 5830 5829 5829 5830 5831 5830 5832 5832 5832 5832 5832 5833 5833 5832 5832 5832 5831 5831 5831 5831 5830 5830 5829 5828 5827 5826 5825 5824 5822 5821 5820 5819 5819 5818 5816 5815 5814 5813 5812 5811 5809 5808 5807 5806 5805 5803 5802
5824 5825 5826 5826 5825 5826 5826 5826 5828 5828 5828 5828 5828 5828 5828 5828 5828 5828 5828 5827 5827 5827 5826 5826 5825 5824 5823 5821 5820 5819 5818 5817 5816 5815 5814 5813 5811 5810 5809 5808 5806 5805 5804 5803 5802 5801 5800 5798 5797
5820 5820 5821 5821 5821 5821 5822 5823 5823 5823 5824 5824 5824 5824 5824 5824 5824 5823 5823 5823 5823 5823 5822 5821 5820 5819 5818 5817 5816 5814 5813 5812 5811 5810 5809 5808 5806 5805 5803 5802 5801 5800 5798 5797 5796 5795 5794 5793 5791
5815 5816 5816 5816 5816 5816 5817 5818 5819 5819 5819 5820 5820 5820 5820 5820 5820 5819 5819 5819 5818 5818 5817 5816 5816 5815 5813 5812 5811 5809 5808 5807 5806 5804 5803 5802 5801 5799 5798 5797 5795 5794 5793 5792 5791 5789 5788 5787 5786
5811 5811 5811 5811 5812 5812 5812 5815 5814 5814 5815 5815 5816 5816 5816 5816 5815 5815 5814 5814 5813 5813 5812 5811 5810 5809 5808 5807 5806 5804 5803 5801 5800 5798 5797 5796 5795 5794 5792 5791 5790 5788 5787 5786 5784 5783 5782 5781 5780
5805 5806 5806 5807 5807 5807 5807 5812 5809 5810 5810 5810 5810 5811 5811 5811 5810 5810 5809 5809 5808 5807 5807 5806 5805 5804 5803 5802 5800 5798 5797 5795 5794 5793 5791 5790 5789 5788 5786 5785 5783 5782 5781 5780 5778 5777 5776 5774 5774